This is the latest recevied weather packets stored in our database for station/object KC5DAQ-22. If no packets are shown the sender has not sent any weather packets the latest 1 day(s).
| Time | Temp. | Humidity | Pressure | Rain* | Wind** | Luminosity | Snow |
|---|---|---|---|---|---|---|---|
| 1777958522 | 21.67° C | 85% | 1008.9 hPa | 0 mm | 0.89 m/s, 47° | 0 W/m² | - |
| 1777958464 | 21.67° C | 84% | 1008.9 hPa | 0 mm | 0.89 m/s, 39° | 0 W/m² | - |
| 1777958402 | 22.22° C | 84% | 1008.9 hPa | 0 mm | 1.34 m/s, 42° | 0 W/m² | - |
| 1777958341 | 22.22° C | 84% | 1009 hPa | 0 mm | 1.34 m/s, 39° | 0 W/m² | - |
| 1777958282 | 22.22° C | 84% | 1008.9 hPa | 0 mm | 1.34 m/s, 45° | 0 W/m² | - |
| 1777958222 | 22.22° C | 84% | 1009 hPa | 0 mm | 1.79 m/s, 44° | 0 W/m² | - |
| 1777958164 | 22.22° C | 84% | 1008.9 hPa | 0 mm | 1.79 m/s, 45° | 0 W/m² | - |
| 1777958104 | 22.22° C | 84% | 1009 hPa | 0 mm | 1.79 m/s, 44° | 0 W/m² | - |
| 1777958042 | 22.22° C | 84% | 1009 hPa | 0 mm | 2.24 m/s, 41° | 0 W/m² | - |
| 1777957982 | 22.22° C | 84% | 1009 hPa | 0 mm | 1.79 m/s, 42° | 0 W/m² | - |
| 1777957923 | 22.22° C | 84% | 1009 hPa | 0 mm | 1.34 m/s, 47° | 0 W/m² | - |
| 1777957862 | 22.22° C | 84% | 1009 hPa | 0 mm | 1.79 m/s, 35° | 0 W/m² | - |
| 1777957803 | 22.22° C | 84% | 1008.9 hPa | 0 mm | 1.79 m/s, 49° | 0 W/m² | - |
| 1777957743 | 22.22° C | 84% | 1008.9 hPa | 0 mm | 1.79 m/s, 41° | 0 W/m² | - |
| 1777957683 | 22.22° C | 84% | 1008.8 hPa | 0 mm | 1.79 m/s, 35° | 0 W/m² | - |
| 1777957622 | 22.22° C | 84% | 1008.9 hPa | 0 mm | 1.34 m/s, 38° | 0 W/m² | - |
| 1777957563 | 22.22° C | 84% | 1008.9 hPa | 0 mm | 1.34 m/s, 39° | 0 W/m² | - |
| 1777957503 | 22.22° C | 84% | 1008.9 hPa | 0 mm | 1.34 m/s, 51° | 0 W/m² | - |
| 1777957442 | 22.22° C | 84% | 1008.9 hPa | 0 mm | 1.34 m/s, 49° | 0 W/m² | - |
| 1777957383 | 22.22° C | 84% | 1008.9 hPa | 0 mm | 1.34 m/s, 48° | 0 W/m² | - |
| 1777957323 | 22.22° C | 83% | 1008.9 hPa | 0 mm | 1.79 m/s, 37° | 0 W/m² | - |
| 1777957253 | 22.22° C | 83% | 1008.9 hPa | 0 mm | 1.79 m/s, 37° | 0 W/m² | - |
| 1777957192 | 22.22° C | 83% | 1008.8 hPa | 0 mm | 1.79 m/s, 37° | 0 W/m² | - |
| 1777957133 | 22.22° C | 83% | 1008.9 hPa | 0 mm | 1.79 m/s, 37° | 0 W/m² | - |
| 1777957073 | 22.22° C | 83% | 1009 hPa | 0 mm | 1.79 m/s, 37° | 0 W/m² | - |
* Rain latest hour (hover to see other rain measurements)
** Current wind speed in m/s (hover to see current wind gust speed)